Cahokia, IL

11:41 AM CDT on August 20, 2017 (GMT -0500)
Saint Louis Downtown

Weather History for KCPS - January, 2014

Change the Weather History Date:

Wednesday, January 22, 2014

  Actual Average Record
Temperature  
Mean Temperature 20 °F -  
Max Temperature 28 °F 51 °F 72 °F (1999)
Min Temperature 12 °F 31 °F 4 °F (1959)
Degree Days  
Heating Degree Days 45    
Moisture  
Dew Point 11 °F    
Average Humidity 64    
Maximum Humidity 74    
Minimum Humidity 51    
Precipitation  
Precipitation 0.00 in - - ()
Sea Level Pressure  
Sea Level Pressure 30.16 in    
Wind  
Wind Speed 9 mph (West)    
Max Wind Speed 24 mph    
Max Gust Speed 30 mph    
Visibility 10 miles    
Events      
Averages and records for this station are not official NWS values.
T = Trace of Precipitation, MM = Missing Value Source: NWS Daily Summary

Daily Weather History Graph

Daily Weather History Graph

Search for Another Location

Airport or City:

Trip Planner

Search our weather history database for the weather conditions in past years. The results will help you decide how hot, cold, wet, or windy it might be!

Date:

Astronomy

Jan. 22, 2014 Rise Set
Actual Time 7:13 AM CST 5:11 PM CST
Civil Twilight 6:44 AM CST 5:39 PM CST
Nautical Twilight 6:12 AM CST 6:12 PM CST
Astronomical Twilight 5:41 AM CST 6:43 PM CST
Moon 11:38 PM CST (1/22) 10:19 AM CST (1/22)
Length of Visible Light 10h 55m
Length of Day
9h 57m
Waning Gibbous, 65% of the Moon is Illuminated
Jan 22
Waning Gibbous
Jan 23
Last Quarter
Jan 30
New
Feb 6
First Quarter
Feb 14
Full

Hourly Weather History & Observations

Time (CST) Temp. Windchill Dew Point Humidity Pressure Visibility Wind Dir Wind Speed Gust Speed Precip Events Conditions
12:53 AM 12.9 °F 5.2 °F 3.9 °F 67% 30.25 in 10.0 mi SE 4.6 mph - N/A   Overcast
1:53 AM 14.0 °F 2.9 °F 5.0 °F 67% 30.23 in 10.0 mi SSE 8.1 mph - N/A   Overcast
2:53 AM 14.0 °F 1.2 °F 6.1 °F 71% 30.20 in 10.0 mi SE 10.4 mph - N/A   Overcast
3:53 AM 14.0 °F 2.9 °F 6.1 °F 71% 30.17 in 10.0 mi South 8.1 mph - N/A   Overcast
4:53 AM 15.1 °F 5.2 °F 7.0 °F 70% 30.15 in 10.0 mi SSE 6.9 mph - N/A   Overcast
5:53 AM 16.0 °F 7.4 °F 8.1 °F 71% 30.15 in 10.0 mi SSE 5.8 mph - N/A   Overcast
6:53 AM 17.1 °F 10.0 °F 9.0 °F 71% 30.13 in 10.0 mi South 4.6 mph - N/A   Overcast
7:53 AM 18.0 °F 11.1 °F 10.9 °F 74% 30.11 in 10.0 mi South 4.6 mph - N/A   Overcast
8:53 AM 19.9 °F 10.1 °F 10.9 °F 68% 30.10 in 10.0 mi South 8.1 mph - N/A   Overcast
9:53 AM 21.9 °F 12.5 °F 10.9 °F 63% 30.10 in 10.0 mi SSW 8.1 mph - N/A   Overcast
10:53 AM 25.0 °F 18.1 °F 12.0 °F 58% 30.10 in 10.0 mi WSW 5.8 mph - N/A   Overcast
11:53 AM 27.0 °F 15.2 °F 12.9 °F 56% 30.09 in 10.0 mi West 15.0 mph 20.7 mph N/A   Overcast
12:53 PM 27.0 °F 13.5 °F 16.0 °F 63% 30.09 in 10.0 mi WNW 19.6 mph 27.6 mph 0.00 in   Overcast
1:53 PM 27.0 °F 14.3 °F 14.0 °F 58% 30.08 in 10.0 mi West 17.3 mph 27.6 mph N/A   Scattered Clouds
2:53 PM 28.9 °F 19.2 °F 12.9 °F 51% 30.07 in 10.0 mi West 11.5 mph - N/A   Clear
3:53 PM 28.9 °F 19.8 °F 14.0 °F 54% 30.10 in 10.0 mi WNW 10.4 mph - N/A   Clear
4:53 PM 28.9 °F 18.6 °F 14.0 °F 54% 30.12 in 10.0 mi NW 12.7 mph - N/A   Clear
5:53 PM 27.0 °F 16.7 °F 15.1 °F 61% 30.15 in 10.0 mi NW 11.5 mph - N/A   Overcast
6:53 PM 28.0 °F 18.6 °F 15.1 °F 58% 30.17 in 10.0 mi NW 10.4 mph - N/A   Overcast
7:53 PM 26.1 °F 15.6 °F 14.0 °F 60% 30.19 in 10.0 mi NW 11.5 mph - N/A   Scattered Clouds
8:39 PM 23.0 °F 10.1 °F 15.8 °F 74% 30.20 in 10.0 mi North 15.0 mph - N/A   Scattered Clouds
8:53 PM 23.0 °F 11.1 °F 16.0 °F 74% 30.23 in 10.0 mi North 12.7 mph - N/A   Mostly Cloudy
9:53 PM 21.9 °F 6.5 °F 10.0 °F 60% 30.27 in 10.0 mi NNW 20.7 mph 29.9 mph N/A   Overcast
10:53 PM 19.9 °F 5.2 °F 8.1 °F 60% 30.30 in 10.0 mi NNW 17.3 mph 23.0 mph N/A   Mostly Cloudy
11:53 PM 16.0 °F -2.5 °F 3.9 °F 59% 30.36 in 10.0 mi NNW 24.2 mph 29.9 mph N/A   Overcast